Voltar ao catálogo

SL-3 R/B

AtivoPO
NORAD 13154·ROCKET BODY·🇷🇺 Russia

Lançado May 5, 1982 de Plesetsk Cosmodrome

Loading…

Próximas Passagens (próximas 24 horas)

TLE

AtualizadoSource: Space-Track

Época: Sep 14, 2026, 18:43 UTC

1 13154U 82039B   26257.78017640  .00001638  00000-0  95769-4 0  9999
2 13154  81.1491 357.5779 0032113  56.6140 303.8151 15.10902304410185

Acompanhe SL-3 R/B em tempo real com AllMySat

Download on the App Store